Location: Woodstock
(35.2731°N, 89.9823°W)
Time: 06:09:52
(UTC+00:00)

Tiangong - Visible Passes

Search period start: 14 October 2024 00:00
Search period end: 24 October 2024 00:00
Orbit: 371 x 377 km, 41.5° (Epoch: 13 October)

Date Brightness Start Highest point End Pass type
(mag) Time Alt. Az. Time Alt. Az. Time Alt. Az.
15 Oct 0.1 11:19:24 10° SSW 11:21:56 23° SE 11:24:29 10° E visible
16 Oct 0.8 10:18:11 11° SSE 10:18:59 11° SE 10:20:05 10° ESE visible
17 Oct -1.0 10:50:36 23° SSW 10:52:02 39° SSE 10:54:58 10° ENE visible
18 Oct 1.2 09:50:47 12° ESE 09:50:47 12° ESE 09:51:12 10° E visible
18 Oct -2.1 11:22:47 15° WSW 11:25:15 64° NNW 11:28:21 10° ENE visible
19 Oct -0.9 10:22:48 41° E 10:22:48 41° E 10:25:00 10° ENE visible
20 Oct -1.7 10:54:38 39° NW 10:55:07 43° NNW 10:58:06 10° ENE visible
21 Oct 1.2 09:54:20 12° ENE 09:54:20 12° ENE 09:54:41 10° ENE visible
21 Oct -0.8 11:26:19 14° WNW 11:28:27 26° N 11:31:09 10° NE visible
22 Oct -0.2 10:25:55 24° NNE 10:25:55 24° NNE 10:27:36 10° NE visible
23 Oct -0.7 10:57:23 23° NNW 10:58:00 24° N 11:00:37 10° NE visible
